Location: Cruquius
(52.3348°N, 4.6319°E)
Time: 21:20:47
(UTC+00:00)

Cosmos 2242 Rocket - Pass Details

Date: 28 September 2021
Orbit: 618 x 652 km, 82.5° (Epoch: 27 October)

Event Time Altitude Azimuth Distance (km) Brightness Sun altitude
Rises 04:49:13 0° 164° (SSE) 2,951 7.2 -8.2°
Reaches altitude 10° 04:51:35 10° 156° (SSE) 2,049 6.5 -7.9°
Maximum altitude 04:55:43 35° 91° (E) 1,052 5.6 -7.2°
Drops below altitude 10° 04:59:54 10° 26° (NNE) 2,072 6.7 -6.6°
Sets 05:02:18 0° 17° (NNE) 2,988 7.4 -6.2°
